Temp
-4 -4 -5 -5 -5 -6 -6 -6 -7 -7 -8 -8 -9 -9 -10 -10 -10 -11 -11 -11 -11 -11 -11 -11 -11 -11 -11 -11 -11 -11 -11 -11 -11 -11 -11 -11 -11 -11 -11 -11 -11 -11 -11 -11 -11 -11 -11 -10 -10 -10 -10 -10 -10 -10 -10 -10 -11 -11 -11 -11 -12 -12 -12 -12 -12 -12 -12 -12 -12
-4 -4 -5 -5 -5 -6 -6 -7 -7 -8 -8 -8 -9 -9 -10 -10 -10 -11 -11 -11 -11 -11 -11 -11 -11 -11 -11 -11 -11 -11 -11 -11 -11 -11 -11 -11 -11 -11 -11 -11 -11 -11 -11 -11 -11 -11 -10 -10 -10 -10 -10 -10 -10 -10 -10 -10 -10 -11 -11 -11 -11 -12 -12 -12 -12 -12 -12 -12 -12
-4 -4 -5 -5 -6 -6 -6 -7 -7 -8 -8 -8 -9 -9 -10 -10 -11 -11 -11 -11 -11 -11 -11 -11 -11 -11 -11 -11 -11 -11 -11 -11 -11 -11 -11 -11 -11 -11 -11 -11 -11 -11 -11 -11 -11 -11 -10 -10 -10 -10 -10 -10 -10 -10 -10 -10 -10 -10 -11 -11 -11 -11 -12 -12 -12 -12 -12 -12 -12
-4 -4 -5 -5 -6 -6 -7 -7 -7 -8 -8 -8 -9 -9 -10 -10 -10 -11 -11 -11 -11 -11 -11 -11 -11 -11 -11 -11 -11 -11 -11 -11 -11 -11 -11 -11 -11 -11 -11 -11 -11 -11 -11 -11 -11 -11 -10 -10 -10 -10 -10 -10 -10 -10 -10 -10 -10 -10 -10 -11 -11 -11 -11 -11 -11 -11 -11 -12 -12
-4 -5 -5 -5 -6 -6 -6 -7 -7 -8 -8 -8 -9 -9 -10 -10 -10 -11 -11 -11 -11 -11 -11 -11 -11 -11 -11 -11 -11 -11 -11 -11 -11 -11 -11 -11 -11 -11 -11 -11 -11 -11 -11 -11 -11 -11 -10 -10 -10 -10 -10 -10 -10 -10 -10 -10 -10 -10 -10 -10 -11 -11 -11 -11 -11 -11 -11 -11 -11
-4 -5 -5 -5 -6 -6 -6 -7 -7 -8 -8 -8 -9 -9 -10 -10 -10 -11 -11 -11 -11 -11 -11 -11 -11 -11 -11 -11 -11 -11 -11 -11 -11 -11 -11 -11 -11 -11 -11 -10 -10 -11 -11 -11 -11 -11 -11 -10 -10 -10 -10 -10 -10 -10 -10 -10 -10 -10 -10 -10 -10 -10 -10 -10 -10 -10 -10 -11 -11
-4 -5 -5 -5 -6 -6 -6 -7 -7 -8 -8 -8 -9 -9 -10 -10 -10 -10 -10 -11 -11 -11 -11 -11 -11 -11 -11 -11 -11 -11 -11 -11 -11 -11 -11 -11 -11 -10 -10 -10 -10 -10 -11 -11 -11 -11 -11 -11 -10 -10 -10 -10 -10 -10 -10 -10 -10 -10 -10 -10 -10 -10 -10 -10 -10 -10 -10 -10 -10
-4 -4 -5 -5 -5 -6 -6 -7 -7 -8 -8 -8 -9 -9 -9 -10 -10 -10 -10 -11 -11 -11 -11 -11 -11 -11 -11 -10 -10 -10 -11 -11 -11 -11 -11 -11 -11 -10 -10 -10 -10 -10 -10 -11 -11 -11 -11 -11 -11 -10 -10 -10 -10 -10 -9 -9 -10 -10 -10 -10 -10 -10 -10 -10 -10 -10 -10 -10 -10
-4 -4 -5 -5 -6 -6 -6 -7 -7 -8 -8 -8 -9 -9 -9 -10 -10 -10 -10 -10 -10 -10 -10 -11 -11 -11 -10 -10 -10 -10 -11 -11 -11 -11 -11 -11 -10 -10 -10 -10 -10 -10 -10 -11 -11 -11 -11 -11 -11 -10 -10 -10 -9 -9 -9 -9 -9 -9 -9 -9 -10 -10 -10 -10 -10 -10 -9 -9 -9
-4 -5 -5 -5 -6 -6 -6 -7 -7 -7 -8 -8 -8 -9 -9 -9 -10 -10 -10 -10 -10 -10 -11 -11 -11 -11 -10 -10 -10 -10 -11 -11 -11 -11 -11 -11 -11 -10 -10 -10 -10 -10 -10 -11 -11 -11 -11 -11 -10 -10 -10 -10 -9 -9 -9 -9 -9 -9 -9 -9 -9 -9 -9 -9 -9 -9 -9 -9 -9
-4 -5 -5 -5 -5 -6 -6 -6 -7 -7 -8 -8 -8 -9 -9 -9 -9 -10 -10 -10 -10 -10 -10 -11 -11 -10 -10 -10 -10 -10 -11 -11 -11 -11 -11 -11 -10 -10 -10 -10 -10 -10 -10 -10 -11 -11 -11 -11 -10 -10 -10 -10 -10 -9 -9 -9 -9 -9 -9 -9 -9 -9 -9 -9 -9 -9 -9 -9 -9
-4 -5 -5 -5 -6 -6 -6 -6 -7 -7 -8 -8 -8 -9 -9 -9 -9 -10 -10 -10 -10 -10 -10 -10 -10 -10 -11 -11 -10 -11 -11 -11 -11 -11 -11 -11 -10 -10 -10 -10 -10 -10 -10 -10 -10 -11 -11 -11 -10 -10 -10 -10 -10 -10 -10 -9 -9 -9 -9 -9 -9 -9 -9 -9 -9 -9 -9 -8 -8
-4 -5 -5 -5 -6 -6 -6 -6 -7 -7 -7 -8 -8 -9 -9 -9 -9 -9 -10 -10 -10 -10 -10 -10 -10 -11 -11 -11 -11 -11 -11 -11 -11 -11 -11 -11 -10 -10 -10 -10 -10 -10 -10 -10 -10 -11 -11 -10 -10 -10 -10 -10 -10 -10 -10 -10 -9 -9 -9 -9 -9 -9 -9 -9 -9 -9 -9 -8 -8
-5 -5 -5 -5 -6 -6 -6 -7 -7 -7 -7 -8 -8 -8 -9 -9 -9 -9 -9 -10 -10 -10 -10 -10 -10 -11 -11 -11 -11 -11 -11 -11 -11 -11 -11 -11 -10 -10 -10 -10 -10 -10 -10 -10 -10 -11 -11 -10 -10 -10 -10 -10 -10 -10 -10 -10 -10 -10 -9 -9 -9 -9 -9 -9 -9 -9 -9 -9 -9
-5 -5 -5 -5 -6 -6 -6 -7 -7 -7 -7 -8 -8 -8 -8 -9 -9 -9 -9 -9 -10 -10 -10 -10 -10 -11 -11 -11 -11 -11 -11 -11 -11 -11 -11 -11 -10 -10 -10 -10 -10 -10 -10 -10 -10 -10 -11 -10 -10 -10 -10 -10 -10 -10 -10 -10 -10 -10 -10 -10 -10 -9 -9 -9 -9 -9 -9 -9 -9
-5 -5 -5 -6 -6 -6 -7 -7 -7 -7 -7 -8 -8 -8 -8 -9 -9 -9 -9 -9 -9 -10 -10 -10 -10 -11 -11 -11 -11 -11 -11 -11 -11 -11 -11 -11 -10 -10 -10 -10 -10 -10 -10 -10 -10 -10 -10 -10 -10 -10 -10 -10 -10 -10 -10 -10 -10 -10 -10 -10 -10 -10 -10 -10 -9 -9 -9 -9 -9
-5 -5 -6 -6 -6 -6 -7 -7 -7 -7 -7 -7 -8 -8 -8 -8 -9 -9 -9 -9 -9 -10 -10 -10 -10 -10 -11 -11 -11 -11 -11 -11 -11 -11 -11 -11 -10 -10 -10 -10 -10 -10 -10 -10 -10 -10 -10 -10 -10 -10 -10 -10 -10 -10 -10 -10 -10 -10 -10 -10 -10 -10 -10 -10 -10 -10 -10 -9 -9
-5 -5 -6 -6 -6 -6 -7 -7 -7 -7 -7 -7 -8 -8 -8 -8 -9 -9 -9 -9 -9 -9 -10 -10 -10 -10 -11 -11 -11 -11 -11 -11 -11 -11 -11 -11 -10 -10 -10 -10 -10 -10 -10 -10 -10 -10 -10 -10 -10 -10 -10 -10 -10 -10 -10 -10 -10 -10 -10 -10 -10 -10 -10 -10 -10 -10 -10 -10 -10
-5 -5 -6 -6 -6 -6 -7 -7 -7 -7 -7 -7 -8 -8 -8 -8 -9 -9 -9 -9 -9 -9 -10 -10 -10 -10 -11 -11 -11 -11 -11 -11 -11 -11 -11 -11 -11 -10 -10 -10 -10 -10 -10 -10 -11 -11 -10 -10 -10 -10 -10 -10 -10 -10 -10 -10 -10 -10 -10 -10 -10 -10 -10 -10 -10 -10 -10 -10 -10
-5 -6 -6 -6 -6 -7 -7 -7 -7 -7 -7 -7 -8 -8 -8 -8 -9 -9 -9 -9 -9 -9 -10 -10 -10 -10 -10 -11 -11 -11 -11 -11 -11 -11 -11 -11 -11 -10 -10 -10 -10 -10 -10 -10 -11 -11 -10 -10 -10 -10 -10 -10 -10 -10 -10 -10 -10 -10 -10 -10 -10 -10 -10 -10 -10 -10 -10 -10 -10
-5 -6 -6 -6 -6 -7 -7 -7 -7 -7 -7 -7 -8 -8 -8 -8 -9 -9 -9 -9 -9 -9 -10 -10 -10 -10 -10 -10 -10 -11 -11 -11 -11 -11 -11 -11 -11 -10 -10 -10 -10 -10 -10 -10 -10 -10 -10 -10 -10 -10 -10 -10 -10 -10 -10 -10 -10 -10 -10 -10 -10 -10 -10 -10 -10 -10 -10 -10 -10
-5 -6 -6 -6 -6 -7 -7 -7 -7 -7 -7 -7 -8 -8 -8 -8 -8 -9 -9 -9 -9 -9 -10 -10 -10 -10 -10 -10 -10 -10 -11 -11 -11 -11 -11 -11 -11 -10 -10 -10 -10 -10 -10 -10 -10 -10 -10 -10 -10 -10 -10 -10 -10 -10 -10 -10 -10 -10 -10 -10 -10 -10 -10 -10 -10 -10 -10 -10 -10
-6 -6 -6 -6 -6 -7 -7 -7 -7 -7 -7 -8 -8 -8 -8 -8 -8 -9 -9 -9 -9 -9 -9 -10 -10 -10 -10 -10 -10 -10 -11 -11 -11 -11 -11 -11 -11 -10 -10 -10 -10 -10 -10 -10 -10 -10 -10 -10 -10 -10 -10 -10 -10 -10 -10 -10 -10 -10 -10 -10 -10 -10 -10 -10 -10 -10 -10 -10 -11
-6 -6 -6 -6 -6 -7 -7 -7 -7 -7 -7 -8 -8 -8 -8 -8 -8 -9 -9 -9 -9 -9 -9 -10 -10 -10 -10 -10 -10 -11 -11 -11 -11 -11 -11 -11 -10 -10 -10 -10 -10 -10 -10 -10 -10 -10 -10 -10 -10 -10 -10 -10 -10 -10 -10 -10 -10 -10 -10 -10 -10 -10 -10 -10 -10 -10 -10 -11 -11
-6 -6 -6 -6 -6 -7 -7 -7 -7 -7 -7 -7 -8 -8 -8 -8 -8 -8 -9 -9 -9 -9 -9 -10 -10 -10 -10 -10 -11 -11 -11 -11 -11 -11 -11 -10 -10 -10 -10 -10 -10 -10 -10 -10 -10 -10 -10 -10 -10 -10 -10 -10 -10 -10 -10 -10 -10 -10 -10 -10 -10 -10 -10 -10 -10 -11 -11 -11 -11
-6 -6 -6 -6 -6 -7 -7 -7 -7 -7 -7 -7 -8 -8 -8 -8 -8 -8 -9 -9 -9 -9 -9 -9 -9 -10 -10 -11 -11 -11 -11 -11 -11 -11 -11 -11 -10 -10 -10 -10 -10 -10 -10 -10 -10 -10 -10 -10 -9 -10 -10 -10 -10 -10 -10 -10 -10 -10 -10 -10 -10 -10 -10 -10 -10 -11 -11 -11 -11
-6 -6 -6 -6 -6 -7 -7 -7 -7 -7 -7 -7 -8 -8 -8 -8 -8 -8 -8 -9 -9 -9 -9 -9 -10 -10 -11 -11 -11 -11 -11 -11 -11 -11 -11 -11 -11 -11 -11 -11 -11 -10 -10 -10 -10 -10 -10 -10 -9 -9 -10 -10 -10 -10 -10 -11 -10 -10 -10 -10 -10 -10 -10 -10 -10 -11 -11 -11 -11
-6 -6 -6 -6 -6 -7 -7 -7 -7 -7 -7 -7 -8 -8 -8 -8 -8 -8 -8 -8 -9 -9 -9 -9 -10 -10 -11 -11 -11 -11 -11 -11 -11 -11 -11 -11 -11 -11 -11 -11 -11 -10 -10 -10 -10 -10 -10 -10 -10 -9 -9 -10 -10 -10 -10 -11 -10 -11 -11 -11 -10 -10 -10 -10 -10 -10 -11 -11 -11
-6 -6 -6 -6 -6 -7 -7 -7 -7 -7 -7 -7 -8 -8 -8 -8 -8 -8 -8 -8 -9 -9 -9 -9 -10 -10 -11 -11 -11 -11 -11 -11 -11 -11 -11 -11 -11 -11 -10 -11 -11 -10 -10 -10 -10 -10 -10 -10 -10 -10 -9 -9 -10 -10 -10 -10 -10 -11 -11 -11 -10 -10 -10 -10 -10 -10 -10 -10 -11
-6 -6 -6 -6 -6 -7 -7 -7 -7 -7 -7 -7 -8 -8 -8 -8 -8 -8 -8 -8 -9 -9 -9 -9 -9 -10 -10 -10 -10 -11 -11 -11 -11 -11 -11 -11 -11 -11 -10 -10 -10 -10 -10 -10 -10 -10 -10 -10 -10 -10 -10 -9 -9 -10 -10 -10 -10 -11 -11 -11 -11 -10 -10 -10 -10 -10 -10 -10 -10
-6 -6 -6 -6 -6 -7 -7 -7 -7 -7 -7 -7 -8 -8 -8 -8 -8 -8 -8 -8 -8 -9 -9 -9 -9 -9 -10 -10 -10 -11 -11 -11 -11 -11 -11 -11 -11 -11 -10 -10 -10 -10 -10 -10 -10 -10 -10 -10 -10 -10 -10 -10 -9 -9 -10 -10 -10 -11 -11 -11 -11 -11 -10 -10 -10 -10 -10 -10 -10
-6 -6 -6 -6 -6 -7 -7 -7 -7 -7 -7 -7 -8 -8 -8 -8 -8 -8 -8 -8 -8 -8 -9 -9 -9 -9 -10 -10 -10 -10 -10 -11 -11 -11 -11 -11 -11 -10 -10 -10 -10 -10 -10 -10 -10 -10 -10 -10 -10 -10 -10 -10 -9 -9 -10 -10 -10 -11 -11 -11 -11 -11 -11 -10 -10 -10 -10 -10 -10
-6 -6 -6 -6 -6 -7 -7 -7 -7 -7 -7 -7 -8 -8 -8 -8 -8 -8 -8 -8 -8 -8 -9 -9 -9 -9 -9 -10 -10 -10 -10 -10 -10 -10 -10 -10 -10 -10 -10 -10 -10 -10 -10 -10 -10 -10 -10 -10 -10 -10 -10 -10 -10 -10 -10 -10 -10 -11 -11 -11 -11 -11 -11 -11 -10 -10 -10 -10 -10
-6 -6 -6 -6 -6 -7 -7 -7 -7 -7 -7 -7 -8 -8 -8 -8 -8 -8 -8 -8 -8 -8 -8 -9 -9 -9 -9 -9 -10 -10 -10 -10 -10 -10 -10 -10 -10 -10 -10 -10 -10 -10 -10 -10 -10 -10 -10 -10 -10 -10 -10 -10 -10 -10 -10 -10 -10 -10 -10 -10 -10 -11 -11 -11 -10 -10 -10 -10 -10
-6 -6 -6 -6 -7 -7 -7 -7 -7 -7 -7 -7 -8 -8 -8 -8 -8 -8 -8 -8 -8 -8 -8 -8 -9 -9 -9 -9 -9 -9 -10 -10 -9 -10 -10 -10 -10 -10 -10 -10 -9 -9 -9 -9 -9 -9 -9 -9 -10 -10 -10 -10 -10 -10 -10 -10 -10 -10 -10 -10 -10 -10 -11 -11 -11 -10 -10 -10 -10
-6 -6 -6 -6 -7 -7 -7 -7 -7 -7 -7 -7 -8 -8 -8 -8 -8 -8 -8 -8 -8 -8 -8 -8 -8 -9 -9 -9 -9 -9 -9 -9 -9 -9 -10 -10 -10 -10 -10 -9 -9 -9 -9 -9 -9 -9 -9 -9 -9 -9 -10 -10 -10 -10 -10 -10 -10 -10 -10 -10 -10 -10 -10 -10 -11 -11 -10 -10 -10
-6 -6 -6 -6 -7 -7 -7 -7 -7 -7 -7 -7 -8 -8 -8 -8 -8 -8 -8 -8 -8 -8 -8 -8 -8 -9 -9 -9 -9 -9 -9 -9 -10 -10 -10 -10 -10 -10 -10 -9 -9 -8 -8 -9 -9 -9 -9 -9 -9 -9 -9 -10 -10 -10 -10 -10 -10 -10 -10 -10 -10 -10 -10 -10 -10 -11 -11 -10 -10
-6 -6 -6 -6 -6 -7 -7 -7 -7 -7 -7 -7 -8 -8 -8 -8 -8 -8 -8 -8 -8 -8 -8 -8 -8 -9 -9 -9 -9 -9 -9 -10 -10 -10 -10 -10 -10 -10 -9 -9 -8 -8 -8 -8 -9 -9 -9 -9 -9 -9 -9 -10 -10 -10 -10 -10 -10 -10 -10 -10 -10 -10 -10 -10 -10 -10 -11 -11 -10
-5 -6 -6 -6 -6 -6 -7 -7 -7 -7 -7 -8 -8 -8 -8 -8 -8 -8 -8 -8 -8 -8 -8 -8 -8 -9 -9 -9 -9 -9 -9 -10 -10 -10 -10 -10 -10 -10 -9 -9 -8 -8 -8 -8 -9 -9 -9 -9 -9 -9 -9 -10 -10 -10 -10 -10 -10 -10 -10 -10 -10 -10 -10 -10 -10 -10 -10 -11 -10
-5 -6 -6 -6 -6 -6 -6 -7 -7 -7 -8 -8 -8 -8 -8 -8 -8 -8 -8 -8 -8 -9 -9 -8 -8 -9 -9 -9 -9 -9 -9 -10 -10 -10 -10 -10 -10 -10 -9 -9 -8 -8 -8 -8 -9 -9 -9 -9 -9 -9 -9 -10 -10 -10 -10 -10 -10 -10 -10 -10 -10 -10 -10 -10 -10 -10 -10 -10 -10
-5 -6 -6 -6 -6 -6 -6 -6 -7 -7 -8 -8 -8 -8 -8 -7 -8 -8 -8 -8 -8 -8 -8 -8 -8 -8 -9 -9 -9 -9 -9 -10 -10 -10 -10 -10 -10 -9 -9 -9 -9 -8 -8 -9 -9 -9 -9 -9 -9 -9 -9 -10 -10 -10 -10 -10 -10 -10 -10 -10 -10 -10 -10 -10 -10 -10 -10 -10 -10
Height
1544 1543 1542 1541 1540 1538 1538 1536 1535 1534 1533 1531 1530 1529 1528 1527 1526 1525 1524 1523 1522 1520 1519 1518 1516 1515 1513 1512 1511 1509 1508 1506 1504 1503 1502 1500 1499 1497 1495 1493 1491 1489 1486 1484 1481 1478 1475 1473 1471 1468 1466 1464 1462 1460 1458 1456 1453 1452 1450 1448 1447 1445 1444 1443 1442 1441 1440 1439 1438
1543 1543 1541 1540 1539 1538 1536 1535 1534 1533 1532 1530 1529 1528 1527 1526 1525 1524 1523 1522 1521 1520 1518 1517 1516 1514 1513 1511 1510 1508 1507 1505 1504 1502 1501 1499 1498 1497 1495 1493 1490 1488 1486 1483 1481 1478 1475 1473 1471 1469 1467 1464 1462 1459 1457 1455 1453 1452 1449 1448 1446 1444 1443 1442 1440 1439 1438 1437 1436
1543 1542 1540 1539 1538 1537 1535 1534 1533 1532 1531 1530 1529 1528 1527 1526 1525 1524 1523 1521 1520 1519 1518 1517 1515 1514 1512 1511 1509 1508 1507 1505 1503 1502 1500 1499 1497 1496 1494 1492 1490 1488 1485 1483 1480 1478 1475 1473 1471 1469 1467 1464 1462 1459 1457 1455 1453 1451 1449 1448 1446 1444 1443 1441 1439 1438 1437 1435 1434
1542 1541 1540 1538 1537 1536 1535 1533 1532 1531 1530 1529 1528 1527 1526 1525 1524 1523 1522 1521 1520 1518 1517 1516 1514 1513 1512 1510 1509 1507 1506 1504 1503 1501 1500 1498 1497 1495 1493 1491 1489 1487 1485 1483 1480 1478 1475 1473 1471 1469 1467 1464 1462 1460 1458 1455 1453 1451 1449 1448 1446 1444 1442 1441 1439 1438 1436 1434 1433
1541 1540 1539 1538 1537 1535 1534 1533 1532 1531 1529 1528 1528 1526 1525 1524 1523 1523 1521 1520 1519 1518 1517 1515 1514 1513 1511 1509 1508 1507 1505 1504 1502 1501 1499 1498 1496 1494 1493 1491 1488 1487 1484 1482 1480 1478 1475 1473 1471 1469 1467 1464 1462 1460 1458 1456 1454 1452 1450 1448 1446 1444 1442 1441 1439 1437 1435 1433 1432
1540 1539 1538 1537 1536 1534 1533 1532 1531 1530 1529 1528 1527 1526 1525 1524 1523 1522 1521 1520 1518 1517 1516 1515 1513 1512 1510 1509 1507 1506 1504 1503 1502 1500 1498 1497 1495 1493 1492 1490 1488 1486 1484 1482 1480 1477 1475 1473 1471 1469 1467 1465 1463 1460 1458 1456 1454 1453 1450 1448 1446 1444 1443 1441 1439 1437 1435 1433 1432
1539 1538 1537 1536 1534 1533 1532 1531 1530 1529 1528 1527 1526 1525 1524 1523 1522 1521 1520 1519 1518 1516 1515 1514 1512 1511 1509 1508 1507 1505 1503 1502 1501 1499 1498 1496 1495 1493 1491 1489 1488 1486 1484 1482 1479 1477 1475 1473 1471 1469 1468 1465 1463 1461 1459 1457 1455 1453 1451 1449 1447 1445 1443 1441 1439 1437 1435 1433 1431
1538 1537 1536 1535 1534 1533 1531 1530 1529 1528 1527 1526 1525 1524 1523 1522 1521 1520 1519 1518 1517 1516 1514 1513 1512 1510 1509 1508 1506 1504 1503 1501 1500 1498 1497 1496 1494 1492 1491 1489 1487 1485 1483 1481 1479 1477 1475 1473 1472 1470 1468 1466 1464 1462 1460 1458 1456 1454 1452 1449 1448 1445 1443 1441 1439 1438 1435 1433 1431
1537 1536 1535 1534 1533 1532 1530 1529 1528 1527 1526 1525 1524 1523 1522 1521 1520 1519 1518 1517 1516 1515 1513 1512 1511 1509 1508 1507 1505 1503 1502 1501 1499 1498 1497 1495 1493 1492 1490 1488 1487 1485 1483 1481 1479 1477 1475 1473 1472 1470 1468 1466 1464 1463 1461 1458 1457 1454 1453 1450 1448 1446 1444 1443 1440 1438 1436 1434 1432
1536 1535 1534 1533 1532 1531 1529 1528 1527 1526 1525 1524 1523 1522 1521 1520 1519 1518 1518 1516 1515 1514 1513 1511 1510 1508 1507 1506 1504 1503 1501 1500 1498 1497 1496 1494 1493 1491 1490 1488 1487 1485 1483 1481 1478 1477 1475 1473 1472 1470 1468 1467 1465 1463 1461 1459 1457 1455 1453 1451 1449 1447 1445 1443 1442 1439 1438 1436 1434
1535 1534 1533 1532 1531 1530 1528 1528 1526 1525 1524 1523 1522 1521 1520 1519 1518 1518 1516 1515 1514 1513 1512 1510 1509 1508 1506 1505 1503 1502 1501 1499 1498 1497 1495 1494 1493 1491 1489 1488 1486 1485 1483 1481 1478 1477 1475 1473 1471 1469 1468 1467 1465 1463 1461 1459 1457 1455 1453 1452 1450 1448 1446 1444 1442 1440 1438 1437 1435
1534 1533 1532 1531 1530 1529 1528 1526 1525 1524 1523 1522 1521 1520 1519 1518 1518 1516 1515 1514 1513 1512 1511 1509 1508 1507 1505 1504 1503 1501 1500 1498 1497 1496 1495 1493 1492 1490 1489 1487 1486 1484 1483 1481 1479 1477 1475 1473 1471 1469 1468 1466 1464 1463 1461 1459 1457 1455 1453 1452 1450 1448 1446 1445 1443 1441 1440 1438 1437
1533 1532 1531 1530 1528 1528 1526 1525 1524 1523 1522 1521 1520 1519 1518 1517 1516 1515 1514 1513 1512 1511 1509 1508 1507 1506 1504 1503 1502 1500 1499 1498 1497 1495 1494 1493 1491 1490 1488 1487 1485 1484 1483 1481 1478 1477 1475 1473 1471 1469 1467 1466 1464 1463 1461 1459 1458 1456 1454 1452 1450 1448 1447 1445 1444 1442 1441 1439 1438
1532 1531 1530 1529 1528 1527 1525 1524 1523 1522 1521 1520 1519 1518 1517 1516 1515 1514 1513 1512 1511 1510 1508 1507 1506 1504 1503 1502 1501 1499 1498 1497 1496 1495 1493 1492 1491 1489 1488 1486 1485 1483 1482 1480 1478 1477 1475 1473 1471 1469 1467 1466 1464 1463 1461 1459 1458 1456 1454 1452 1450 1449 1447 1445 1444 1443 1441 1440 1438
1531 1530 1529 1528 1527 1526 1525 1523 1523 1522 1520 1519 1518 1518 1517 1515 1514 1513 1512 1511 1510 1508 1507 1506 1504 1503 1502 1501 1500 1498 1497 1496 1495 1494 1493 1491 1490 1489 1488 1486 1484 1483 1482 1480 1478 1476 1475 1473 1471 1469 1468 1466 1464 1462 1461 1459 1458 1456 1454 1453 1451 1449 1447 1446 1444 1443 1441 1440 1439
1530 1529 1528 1527 1526 1525 1524 1523 1522 1521 1520 1519 1518 1517 1516 1514 1513 1513 1511 1510 1509 1508 1506 1505 1503 1502 1501 1500 1499 1498 1496 1495 1494 1493 1492 1490 1489 1488 1487 1485 1484 1482 1481 1479 1478 1476 1474 1473 1471 1469 1468 1466 1464 1462 1461 1459 1458 1456 1454 1453 1451 1449 1448 1446 1444 1443 1441 1440 1439
1529 1528 1527 1526 1525 1524 1523 1522 1521 1520 1519 1518 1517 1516 1515 1513 1513 1512 1510 1509 1508 1507 1505 1504 1503 1501 1500 1499 1498 1497 1495 1494 1493 1492 1491 1489 1488 1487 1486 1485 1483 1482 1480 1478 1477 1475 1474 1473 1471 1469 1468 1466 1464 1463 1461 1459 1458 1456 1454 1453 1451 1449 1448 1446 1444 1443 1441 1440 1438
1528 1527 1526 1525 1524 1523 1522 1521 1520 1519 1518 1517 1516 1515 1514 1513 1512 1511 1509 1508 1507 1506 1504 1503 1502 1500 1499 1498 1497 1495 1494 1493 1492 1491 1490 1489 1488 1486 1485 1484 1483 1481 1480 1478 1476 1475 1473 1472 1471 1469 1468 1466 1464 1463 1461 1459 1458 1456 1454 1453 1451 1449 1448 1446 1444 1443 1441 1439 1438
1527 1526 1525 1524 1523 1522 1521 1520 1519 1518 1517 1516 1515 1514 1513 1512 1511 1510 1508 1508 1506 1505 1504 1502 1501 1500 1498 1497 1496 1495 1493 1492 1491 1490 1489 1488 1487 1486 1484 1483 1482 1480 1479 1478 1476 1474 1473 1472 1471 1469 1468 1466 1464 1463 1461 1459 1458 1456 1454 1453 1451 1449 1447 1446 1444 1443 1441 1439 1438
1526 1525 1524 1523 1522 1521 1520 1519 1518 1517 1516 1515 1514 1513 1512 1511 1510 1509 1508 1507 1505 1504 1503 1502 1500 1499 1498 1496 1495 1494 1493 1491 1490 1489 1488 1487 1486 1485 1483 1482 1481 1480 1478 1478 1476 1474 1473 1472 1470 1469 1467 1466 1464 1462 1461 1459 1457 1456 1454 1453 1451 1449 1447 1446 1444 1442 1441 1439 1438
1525 1524 1523 1522 1521 1520 1519 1518 1517 1516 1515 1514 1513 1512 1511 1510 1509 1508 1507 1506 1505 1503 1502 1501 1499 1498 1497 1495 1494 1493 1492 1490 1489 1488 1487 1486 1485 1484 1483 1482 1480 1479 1478 1477 1475 1474 1472 1471 1470 1468 1467 1465 1464 1462 1460 1458 1457 1455 1454 1453 1451 1449 1448 1446 1444 1442 1440 1439 1437
1524 1523 1522 1521 1520 1519 1518 1518 1517 1515 1514 1513 1513 1511 1510 1509 1508 1507 1506 1505 1504 1503 1502 1500 1499 1498 1496 1495 1493 1492 1491 1490 1488 1488 1487 1486 1484 1483 1482 1481 1479 1478 1477 1476 1475 1473 1472 1470 1469 1468 1467 1465 1463 1462 1460 1458 1457 1455 1454 1453 1451 1449 1448 1446 1444 1442 1440 1438 1437
1523 1522 1521 1520 1520 1519 1518 1517 1516 1515 1514 1513 1512 1511 1509 1508 1508 1506 1505 1504 1503 1502 1501 1500 1498 1497 1495 1494 1493 1491 1490 1489 1488 1487 1486 1485 1484 1483 1482 1480 1479 1478 1477 1475 1474 1473 1471 1470 1468 1467 1466 1464 1463 1461 1459 1458 1456 1455 1453 1452 1450 1449 1447 1445 1443 1442 1439 1438 1436
1522 1521 1520 1519 1519 1518 1517 1516 1515 1514 1513 1512 1511 1510 1508 1508 1507 1505 1504 1503 1502 1501 1500 1499 1498 1496 1494 1493 1492 1491 1489 1488 1487 1486 1485 1484 1483 1482 1481 1479 1478 1477 1476 1474 1473 1472 1471 1470 1468 1466 1465 1463 1462 1460 1459 1458 1456 1455 1453 1451 1450 1448 1447 1445 1443 1441 1439 1438 1436
1521 1520 1519 1518 1518 1517 1516 1515 1514 1513 1512 1511 1510 1509 1508 1507 1506 1505 1503 1503 1501 1500 1499 1498 1496 1495 1493 1492 1491 1490 1489 1488 1487 1485 1484 1483 1482 1481 1480 1479 1478 1476 1475 1474 1473 1472 1471 1469 1467 1465 1463 1463 1461 1460 1458 1457 1456 1454 1453 1451 1449 1448 1446 1444 1443 1441 1439 1438 1436
1520 1519 1518 1518 1517 1516 1515 1514 1513 1512 1511 1510 1509 1508 1507 1506 1505 1504 1503 1502 1500 1499 1498 1497 1495 1494 1493 1492 1490 1489 1488 1487 1486 1485 1483 1482 1481 1480 1479 1478 1477 1475 1474 1473 1472 1471 1470 1469 1468 1465 1463 1461 1460 1459 1458 1456 1455 1454 1452 1450 1449 1447 1446 1444 1443 1441 1439 1438 1436
1519 1518 1518 1517 1516 1515 1514 1513 1513 1511 1510 1509 1508 1507 1506 1505 1504 1503 1502 1500 1499 1498 1497 1496 1494 1493 1492 1491 1490 1489 1488 1486 1485 1484 1483 1481 1480 1479 1478 1477 1476 1474 1473 1472 1471 1471 1470 1469 1468 1466 1463 1460 1459 1458 1457 1455 1454 1453 1452 1450 1449 1447 1445 1444 1442 1441 1439 1438 1436
1518 1517 1516 1516 1515 1514 1513 1513 1512 1510 1509 1508 1508 1506 1505 1504 1503 1502 1501 1500 1498 1498 1496 1495 1494 1493 1492 1490 1489 1488 1487 1486 1484 1483 1482 1481 1479 1478 1477 1476 1475 1473 1473 1472 1471 1470 1469 1468 1467 1466 1464 1461 1458 1457 1456 1455 1453 1453 1451 1450 1448 1447 1445 1443 1442 1441 1439 1438 1436
1517 1516 1515 1515 1514 1513 1513 1512 1511 1510 1508 1508 1507 1506 1504 1503 1502 1501 1500 1499 1498 1496 1495 1494 1493 1492 1491 1490 1488 1487 1486 1485 1483 1483 1481 1480 1478 1478 1476 1475 1474 1473 1472 1471 1470 1469 1468 1468 1467 1465 1463 1461 1458 1456 1455 1454 1453 1452 1451 1450 1448 1447 1445 1443 1442 1440 1439 1438 1436
1516 1515 1514 1514 1513 1512 1512 1511 1510 1509 1508 1507 1506 1505 1503 1503 1501 1500 1499 1498 1497 1496 1494 1493 1492 1491 1490 1489 1488 1486 1485 1484 1483 1482 1480 1479 1478 1476 1475 1474 1473 1472 1471 1470 1469 1468 1468 1467 1466 1464 1463 1461 1459 1456 1454 1453 1452 1451 1450 1449 1448 1446 1445 1443 1441 1440 1438 1437 1436
1514 1514 1513 1513 1512 1511 1511 1510 1509 1508 1507 1506 1505 1504 1503 1502 1500 1499 1498 1497 1496 1495 1494 1493 1492 1490 1489 1488 1487 1486 1484 1483 1482 1481 1479 1478 1477 1475 1474 1473 1472 1471 1470 1469 1468 1468 1467 1466 1465 1463 1462 1461 1460 1457 1454 1453 1452 1451 1450 1448 1447 1445 1444 1442 1441 1439 1438 1436 1435
1513 1513 1512 1512 1511 1510 1510 1509 1508 1507 1506 1505 1504 1503 1502 1501 1500 1499 1498 1497 1495 1494 1493 1492 1490 1489 1488 1487 1486 1485 1483 1482 1481 1480 1478 1477 1476 1474 1473 1472 1471 1470 1469 1468 1467 1467 1466 1464 1463 1463 1461 1460 1459 1457 1455 1453 1451 1450 1449 1448 1446 1444 1443 1441 1440 1438 1437 1436 1434
1512 1512 1511 1511 1510 1509 1509 1508 1507 1506 1505 1504 1503 1502 1501 1500 1499 1498 1497 1496 1495 1493 1492 1491 1489 1488 1487 1486 1485 1483 1483 1481 1480 1479 1478 1476 1475 1473 1472 1471 1470 1469 1468 1467 1466 1465 1464 1463 1462 1461 1460 1459 1458 1456 1454 1452 1451 1449 1448 1447 1445 1444 1442 1440 1439 1438 1436 1435 1433
1511 1511 1510 1510 1509 1508 1508 1507 1506 1505 1504 1503 1503 1501 1500 1499 1498 1497 1496 1495 1494 1493 1491 1490 1489 1488 1486 1485 1484 1483 1481 1480 1479 1478 1476 1475 1474 1473 1471 1470 1468 1468 1467 1466 1465 1464 1463 1462 1461 1460 1459 1458 1457 1455 1453 1451 1449 1447 1446 1445 1443 1442 1441 1439 1438 1436 1435 1434 1433
1510 1510 1509 1508 1508 1508 1507 1506 1505 1504 1503 1503 1502 1501 1500 1499 1498 1497 1495 1494 1493 1492 1491 1490 1488 1487 1486 1484 1483 1482 1481 1479 1478 1477 1475 1474 1473 1471 1470 1469 1468 1467 1466 1465 1464 1463 1462 1461 1460 1459 1458 1457 1455 1453 1451 1449 1447 1445 1444 1443 1442 1441 1439 1438 1436 1435 1433 1433 1432
1509 1508 1508 1508 1507 1506 1506 1505 1504 1503 1503 1502 1501 1500 1499 1498 1497 1496 1495 1494 1493 1492 1490 1489 1488 1486 1485 1483 1482 1481 1480 1478 1477 1476 1474 1473 1472 1471 1469 1468 1467 1465 1464 1463 1463 1462 1461 1460 1458 1458 1456 1455 1453 1451 1450 1448 1446 1444 1443 1441 1440 1439 1438 1437 1435 1434 1432 1431 1430
1508 1508 1507 1506 1506 1505 1505 1504 1503 1502 1502 1501 1500 1499 1498 1497 1496 1495 1494 1493 1492 1491 1489 1488 1487 1485 1484 1483 1482 1480 1479 1478 1476 1475 1474 1473 1471 1470 1468 1467 1466 1464 1463 1463 1462 1461 1460 1458 1458 1457 1455 1453 1452 1450 1449 1447 1445 1444 1442 1441 1439 1438 1437 1436 1434 1433 1431 1429 1428
1507 1506 1506 1505 1505 1504 1504 1503 1502 1501 1500 1500 1499 1498 1497 1496 1495 1494 1493 1492 1491 1489 1488 1487 1486 1485 1483 1482 1481 1479 1478 1477 1475 1474 1473 1472 1471 1469 1468 1466 1465 1464 1463 1462 1461 1460 1458 1458 1457 1455 1454 1453 1451 1449 1448 1446 1445 1443 1441 1440 1438 1437 1436 1434 1433 1432 1430 1428 1427
1505 1505 1505 1504 1504 1503 1503 1502 1501 1500 1499 1498 1498 1497 1496 1495 1494 1493 1492 1491 1490 1488 1488 1486 1485 1484 1483 1481 1480 1478 1477 1476 1475 1473 1473 1471 1470 1469 1468 1466 1464 1463 1462 1461 1460 1459 1458 1457 1455 1454 1453 1452 1450 1448 1447 1445 1444 1442 1440 1438 1437 1435 1434 1433 1432 1430 1429 1427 1425
1504 1504 1503 1503 1503 1502 1502 1501 1500 1499 1498 1498 1497 1496 1495 1494 1493 1492 1491 1490 1489 1488 1487 1485 1484 1483 1482 1480 1479 1478 1476 1475 1474 1473 1472 1471 1470 1468 1467 1465 1464 1463 1462 1461 1459 1458 1457 1456 1455 1453 1452 1451 1449 1448 1446 1444 1443 1441 1439 1437 1435 1434 1432 1431 1430 1428 1427 1425 1423
1503 1503 1502 1502 1502 1501 1500 1500 1499 1498 1498 1497 1496 1495 1494 1493 1492 1491 1490 1489 1488 1487 1486 1485 1483 1482 1481 1480 1478 1477 1476 1474 1473 1473 1472 1470 1469 1468 1467 1465 1463 1462 1461 1460 1459 1458 1457 1455 1454 1453 1451 1450 1448 1447 1445 1443 1441 1439 1438 1436 1434 1432 1431 1429 1428 1426 1425 1423 1421
Wind_Speed
18 18 19 19 19 19 18 18 18 18 18 18 18 18 18 18 18 18 18 18 19 19 20 20 21 22 23 24 24 25 25 26 26 26 26 27 27 27 28 29 30 31 32 33 34 34 34 34 34 34 32 29 29 29 29 29 28 26 25 24 24 23 23 23 23 22 23 23 24
18 18 18 18 18 18 18 18 17 17 17 17 18 18 18 18 18 18 18 18 19 19 19 20 21 22 23 23 24 25 25 26 26 26 26 26 27 27 28 29 30 30 31 32 33 33 34 34 33 32 30 28 28 28 29 29 28 27 26 26 25 24 24 24 24 24 24 25 25
17 17 17 18 18 18 17 17 17 16 16 16 17 17 17 17 17 18 18 19 19 19 19 19 20 21 22 23 24 24 25 25 25 25 25 26 26 27 28 29 30 30 30 31 32 33 33 33 31 30 29 27 27 27 27 28 29 28 27 26 25 24 23 24 24 24 24 24 25
16 16 17 17 17 17 17 16 16 16 16 16 16 16 16 16 17 17 18 19 19 19 19 19 20 21 22 23 24 24 24 24 24 24 25 25 26 27 28 29 30 30 30 30 30 31 33 32 30 29 28 28 26 25 26 27 28 27 26 25 23 22 22 22 22 22 22 23 23
16 16 16 16 16 16 16 16 16 15 15 16 16 16 16 16 16 17 18 18 19 19 19 19 20 21 21 23 24 24 24 24 24 24 24 25 26 27 28 29 30 30 29 29 29 30 31 32 30 29 29 29 27 25 24 25 25 24 23 21 20 20 20 20 20 20 21 22 22
15 15 15 16 16 16 15 15 15 15 15 15 15 15 15 15 16 17 18 19 19 19 19 19 20 20 21 22 23 24 24 24 24 24 24 25 26 27 28 30 30 30 29 28 28 29 30 31 30 29 28 28 27 25 23 23 22 22 21 20 20 20 20 21 22 23 24 25 25
15 15 15 15 16 16 15 15 15 15 15 15 15 15 15 15 16 17 18 19 19 19 19 20 20 20 21 22 23 24 24 24 24 24 24 25 26 27 28 29 30 30 29 28 27 27 28 29 29 29 28 27 26 25 24 22 22 21 21 22 22 22 23 25 26 27 28 29 29
14 14 15 15 15 15 15 15 15 15 15 15 15 15 15 16 17 17 18 19 19 20 20 20 20 20 21 22 23 23 24 24 24 24 25 25 25 26 28 29 29 29 28 27 27 27 27 27 27 28 27 26 25 25 25 24 23 23 23 23 24 25 26 27 28 29 30 30 30
14 14 14 14 15 15 15 15 15 15 15 15 15 15 16 16 17 18 18 19 20 20 20 20 20 20 20 21 22 23 23 24 24 24 24 25 25 26 27 28 28 28 28 27 26 26 26 26 26 27 27 26 25 25 25 26 26 26 25 26 26 26 26 26 27 28 28 29 29
14 14 14 14 15 15 15 15 15 15 15 15 15 15 16 16 17 18 19 19 20 21 21 20 21 20 20 21 21 22 23 23 23 24 24 25 25 26 27 27 27 27 27 27 26 25 25 25 26 26 26 25 25 25 25 26 27 27 27 27 27 27 26 25 25 25 26 26 27
14 14 14 14 14 15 15 15 15 15 15 15 15 16 16 16 17 18 19 20 20 21 21 21 21 21 20 20 21 21 22 23 23 23 24 24 24 25 26 27 26 26 25 25 25 25 25 26 26 26 25 25 25 25 26 26 27 27 28 28 28 28 27 27 26 25 25 25 24
13 13 14 14 14 15 15 15 15 16 16 16 16 16 16 17 17 18 18 19 20 21 21 22 21 21 20 20 20 21 21 22 22 23 23 24 24 24 25 26 25 24 24 24 24 24 25 26 26 26 25 24 24 25 25 26 26 27 27 28 28 28 28 28 27 26 24 23 22
13 13 14 14 14 15 15 15 16 16 16 16 16 16 16 17 17 17 18 19 20 21 22 22 22 21 20 20 20 20 21 21 22 22 22 23 23 24 24 25 25 23 22 23 23 24 24 26 26 26 25 24 24 24 24 25 25 26 27 27 27 27 27 26 25 24 23 22 21
13 13 13 14 14 15 15 15 16 16 16 16 16 16 16 17 17 17 18 19 20 21 22 22 22 21 20 19 19 19 20 21 21 22 22 22 22 22 23 24 23 22 21 21 23 23 24 26 26 26 25 25 24 24 23 24 24 25 25 25 25 25 25 24 23 22 21 21 20
12 13 13 13 14 14 15 15 16 16 16 16 16 16 16 16 16 17 17 18 20 21 22 22 22 21 20 19 19 19 20 20 21 21 21 21 21 21 22 22 22 20 19 20 21 22 24 26 26 26 25 25 25 24 24 23 23 23 24 24 24 24 23 23 22 21 20 20 19
12 12 13 13 13 14 14 15 15 15 15 16 16 16 16 16 16 17 18 18 20 21 22 22 22 21 20 19 19 19 19 20 20 20 21 21 21 21 21 21 20 19 18 18 19 21 23 25 25 25 25 25 25 24 24 23 23 23 23 23 23 23 22 22 21 20 19 19 19
11 12 12 13 13 14 14 14 15 15 15 15 15 16 16 16 17 17 18 19 20 21 21 21 21 21 20 20 19 19 19 19 19 20 20 20 20 20 20 20 19 19 18 18 18 20 22 25 25 25 25 24 24 24 24 23 23 23 22 22 22 22 21 21 20 20 19 18 18
11 11 12 12 13 13 14 14 14 15 15 15 15 15 16 16 17 17 18 18 19 20 21 21 20 20 20 19 19 19 18 18 18 19 19 19 20 20 19 19 19 19 19 19 18 18 21 23 25 25 25 24 24 23 23 23 23 23 23 22 22 21 21 21 20 19 19 18 18
11 11 11 12 12 13 13 14 14 15 15 15 15 16 16 16 16 17 18 18 19 19 20 20 20 19 19 19 18 18 17 17 17 17 18 18 19 19 19 19 19 19 20 20 17 17 19 22 24 25 25 24 24 23 23 23 23 23 23 23 23 22 21 20 20 19 18 18 18
10 11 11 11 12 13 13 13 14 14 15 15 16 16 16 16 16 17 17 18 18 19 19 19 19 19 18 18 17 17 16 16 16 16 17 18 18 19 19 19 19 19 19 19 17 16 17 20 22 24 24 24 24 23 23 23 23 23 23 23 23 23 22 21 20 19 18 17 17
10 10 11 11 12 12 13 13 14 14 15 15 15 16 16 16 16 16 17 17 18 18 18 18 18 18 18 17 16 16 15 15 15 16 16 17 18 18 19 19 20 19 18 18 16 15 16 18 20 22 23 23 23 23 23 23 23 23 23 23 23 23 22 22 21 20 18 17 16
9 10 10 11 11 12 12 13 13 14 14 15 15 15 15 16 16 16 16 17 17 18 18 18 17 17 17 16 16 15 15 15 15 15 16 17 17 18 18 19 19 19 18 17 16 15 15 16 18 20 21 22 23 23 23 23 23 23 24 24 23 23 23 23 23 22 21 19 18
9 9 10 10 11 11 12 12 13 13 14 14 15 15 15 15 16 16 16 16 17 17 17 17 17 16 16 16 15 15 15 15 15 15 16 16 17 18 18 19 19 19 18 17 16 16 16 15 16 18 19 20 22 23 23 23 23 24 24 25 25 24 24 24 24 24 23 22 20
8 9 9 9 10 10 11 12 12 13 13 14 14 15 15 15 15 16 16 16 16 16 17 17 17 16 16 15 15 16 16 16 16 16 16 16 17 17 18 19 19 19 18 17 16 17 17 16 16 16 17 19 20 21 22 23 23 23 24 25 25 25 25 25 26 26 25 23 22
8 8 9 9 9 10 11 11 12 12 13 14 14 15 15 15 15 16 16 16 16 16 16 17 17 16 16 16 16 16 16 16 16 16 16 17 17 17 18 19 19 19 18 17 16 17 19 18 16 15 16 17 18 19 20 21 21 22 23 24 25 25 25 26 26 26 25 23 22
7 8 8 9 9 9 10 11 11 12 12 13 14 14 15 15 15 15 16 16 16 16 16 17 17 17 16 16 16 16 16 16 16 17 17 17 18 18 18 19 19 19 18 17 16 18 20 21 19 16 15 16 17 18 18 19 20 21 22 22 23 24 25 25 26 26 25 23 21
7 7 7 8 8 9 9 10 11 11 12 12 13 14 14 15 15 15 16 16 16 16 16 16 17 17 16 16 17 17 17 17 17 17 18 18 18 18 18 19 19 19 18 17 17 18 20 22 22 20 17 17 17 17 17 18 19 20 20 21 22 23 23 24 24 24 24 23 22
7 7 7 8 8 8 9 9 10 10 11 12 13 13 14 14 15 15 15 16 16 16 16 17 17 16 16 16 17 17 18 18 18 18 18 18 19 19 19 19 19 18 18 17 17 18 19 21 23 23 21 19 18 18 18 18 18 19 19 20 21 21 22 22 23 23 23 23 23
7 7 7 7 7 8 8 9 9 10 11 11 12 13 13 14 14 15 15 15 16 16 16 17 17 16 17 17 18 18 18 18 18 18 18 18 19 19 18 18 19 18 18 17 17 18 19 20 22 23 23 21 20 20 19 20 19 18 18 19 20 21 21 22 22 22 22 22 22
7 7 7 7 7 8 8 8 9 10 10 11 12 12 13 14 14 14 15 15 16 16 16 16 16 17 17 17 18 18 18 18 18 18 18 19 19 19 19 18 19 18 18 17 17 18 19 20 20 22 23 23 22 21 22 22 21 19 17 18 20 21 21 22 21 21 21 21 22
7 7 7 7 7 7 8 8 9 9 10 10 11 12 12 13 14 14 15 15 15 16 16 16 16 16 17 17 17 18 18 18 18 19 19 19 19 19 19 19 19 19 18 18 18 18 19 20 20 21 22 23 22 22 23 24 24 21 18 18 19 21 22 22 22 21 21 21 21
7 7 7 7 7 7 8 8 8 9 9 10 11 11 12 13 13 14 14 15 15 15 15 15 16 16 16 17 17 17 18 18 18 19 19 19 19 20 20 19 19 19 19 18 18 19 20 20 20 20 21 22 22 23 24 25 24 21 19 18 19 20 21 22 22 22 22 21 21
7 7 7 7 7 7 8 8 8 9 9 10 10 11 12 12 13 13 14 14 15 15 15 16 16 16 16 16 17 17 17 18 18 18 18 18 19 19 20 20 20 19 19 19 18 19 19 20 20 20 20 21 21 22 23 23 23 22 20 19 19 19 20 22 22 23 23 22 21
7 7 7 7 7 8 8 8 8 9 9 9 10 11 12 12 13 13 14 14 15 15 16 16 16 16 16 16 16 17 17 17 17 17 17 18 19 19 20 20 20 20 19 19 19 19 19 19 19 19 20 20 21 22 22 22 22 22 21 20 19 20 21 22 23 23 24 23 22
7 7 7 7 7 8 8 8 8 9 9 9 10 11 11 12 13 13 14 14 15 15 15 15 16 16 16 16 16 16 16 16 16 17 17 17 18 19 20 20 20 20 19 19 18 18 18 18 19 19 19 20 21 21 22 23 23 23 23 22 21 20 21 22 23 23 24 24 24
7 7 7 7 7 8 8 8 9 9 9 10 10 11 11 12 13 13 14 14 15 15 15 15 15 16 16 16 16 16 16 16 16 16 17 17 18 19 20 20 20 19 19 18 18 17 17 18 18 19 19 20 21 21 22 23 23 24 24 23 22 21 21 21 22 22 23 23 24
7 7 7 7 8 8 8 9 9 9 9 10 11 11 12 12 13 14 14 15 15 15 15 15 16 16 16 17 17 16 16 15 16 16 17 17 18 19 20 20 20 19 18 17 17 17 17 17 17 18 19 20 21 22 22 22 23 23 24 24 24 23 22 21 21 21 21 21 22
7 7 7 8 8 8 8 9 9 9 10 10 11 11 12 12 13 14 14 15 15 16 16 16 16 17 17 17 17 17 16 15 15 16 16 17 18 18 19 20 19 18 17 17 16 16 16 16 16 17 18 20 21 22 22 23 23 23 24 25 25 25 23 22 21 20 20 20 21
7 7 7 8 8 8 9 9 9 9 10 10 11 11 12 12 13 14 14 15 16 16 17 17 17 17 18 18 18 18 17 16 15 15 16 17 17 18 18 18 18 17 17 16 16 16 16 16 16 16 17 20 22 23 23 23 23 24 25 25 26 26 25 24 23 22 21 21 21
7 7 8 8 8 8 9 9 9 9 10 11 11 12 12 13 13 14 14 15 16 16 17 17 18 18 18 18 19 18 18 17 16 15 16 17 17 17 17 17 17 17 16 16 16 16 16 16 16 16 17 19 21 23 24 24 24 25 25 25 26 26 26 26 25 24 24 24 23
7 8 8 8 8 9 9 9 9 9 10 10 11 12 12 13 13 14 14 15 15 16 17 17 18 18 18 19 19 19 18 17 17 16 16 16 16 16 16 16 16 16 16 16 16 16 17 17 17 18 18 20 22 23 24 25 26 27 27 26 26 26 26 26 26 26 26 26 25
Wind_Direction
334 335 337 338 339 339 339 338 338 338 338 339 340 340 340 339 337 335 335 334 332 331 330 330 329 329 329 329 329 329 330 333 335 335 334 333 332 332 331 331 332 333 335 337 338 339 339 339 337 336 334 332 329 328 328 327 326 324 322 318 314 311 310 307 303 300 297 295 293
333 335 336 337 338 338 338 337 337 336 336 336 337 337 337 336 334 333 332 332 332 331 328 327 326 327 328 329 330 330 331 334 335 335 335 334 334 334 334 333 334 335 337 340 341 343 343 342 340 338 337 336 334 332 331 331 330 328 325 323 320 317 314 310 307 304 301 298 296
332 334 336 338 338 338 337 335 334 333 332 332 332 334 335 335 332 331 330 330 330 329 327 324 325 327 328 330 331 331 332 334 335 335 335 335 336 336 336 336 336 338 340 342 344 347 348 346 343 342 342 342 341 338 336 335 335 333 329 327 326 323 318 313 311 309 306 302 300
332 334 336 337 338 337 336 333 332 330 329 328 329 331 333 332 330 329 328 328 328 327 325 324 325 326 328 330 331 332 333 335 336 336 336 337 337 338 338 339 340 340 341 343 346 349 352 351 347 346 349 352 351 348 345 343 341 339 336 334 333 331 327 323 322 318 313 309 306
331 333 335 337 337 337 336 334 331 328 326 326 326 328 330 328 327 326 327 327 327 327 326 326 326 327 328 330 331 332 334 336 338 338 338 339 339 340 342 342 343 342 343 343 346 350 354 354 350 350 354 359 360 359 356 352 350 348 347 347 347 346 344 342 339 334 327 321 317
331 333 335 337 338 338 337 335 331 328 325 323 324 325 325 323 322 323 325 326 326 327 327 327 327 328 329 330 331 332 334 337 339 340 340 340 341 343 344 344 344 344 344 344 346 350 354 356 352 353 357 3 6 6 5 3 360 359 1 2 2 1 358 354 349 344 338 331 326
330 333 335 338 339 339 338 335 332 328 325 323 323 323 322 319 319 320 322 325 325 327 328 329 329 330 330 330 329 330 333 336 339 340 342 342 344 345 345 344 344 344 345 346 348 350 353 355 353 354 358 6 9 11 11 10 7 5 6 6 4 2 358 354 351 348 344 340 335
330 333 336 338 339 340 339 337 334 330 326 324 322 321 319 318 317 318 320 322 324 326 328 330 330 330 329 328 328 329 331 335 337 340 343 344 345 345 345 344 343 344 345 348 349 350 351 352 353 355 358 4 8 10 11 10 9 7 4 3 1 359 356 354 352 351 350 349 347
330 334 337 339 340 341 340 338 336 332 328 325 323 320 318 316 315 316 317 318 320 324 327 329 330 329 328 328 328 329 330 333 336 339 342 345 345 346 345 344 343 343 345 349 351 351 349 349 352 355 356 358 2 4 5 6 6 6 4 3 1 360 359 357 356 356 357 357 359
331 335 338 340 341 341 341 339 337 334 331 328 325 322 318 315 314 314 314 315 318 321 325 327 328 328 329 329 329 329 330 332 334 337 341 344 345 345 345 345 343 342 344 349 353 352 349 349 352 354 354 353 354 356 357 359 1 2 3 4 4 4 4 4 5 6 6 7 7
332 335 338 340 341 341 341 339 338 337 335 332 328 325 321 317 315 313 312 313 316 320 323 325 327 328 329 330 330 330 330 331 333 336 340 343 344 345 345 344 342 341 344 349 353 352 350 350 352 353 352 351 350 350 352 353 355 356 358 360 1 3 5 8 12 15 17 17 15
332 335 338 340 341 341 341 340 340 338 336 334 331 328 324 321 317 315 314 314 316 318 321 324 327 329 330 330 330 330 329 330 332 334 338 341 344 345 345 344 341 340 343 349 353 353 352 352 354 353 351 350 348 348 348 349 349 350 351 353 355 357 0 4 10 15 19 19 17
332 336 339 341 342 342 341 341 340 339 337 335 332 329 326 323 321 318 317 317 317 319 321 324 327 329 330 330 330 330 329 329 330 332 336 340 343 344 344 343 341 340 341 347 353 354 354 356 356 354 352 350 348 346 345 345 345 345 346 348 349 351 354 357 2 7 11 13 12
332 336 339 341 342 342 341 341 340 339 337 335 333 330 327 325 324 322 320 320 320 321 323 326 328 329 329 329 329 329 329 328 329 331 334 339 341 343 343 343 341 340 340 345 351 355 357 359 359 357 354 351 348 346 344 343 342 343 344 345 346 347 348 350 353 356 360 1 1
333 337 339 341 341 342 341 340 339 338 337 335 332 330 328 326 325 324 323 323 323 324 326 327 329 329 329 329 329 329 328 327 328 329 333 337 339 341 343 343 342 340 339 342 348 354 358 1 0 359 356 354 351 348 345 343 342 342 342 343 343 344 344 344 345 347 349 350 350
333 337 339 341 342 341 340 339 337 336 335 334 332 330 328 327 327 326 326 326 326 327 328 329 329 329 329 329 329 328 328 327 327 329 332 335 338 340 342 343 343 341 338 339 345 352 358 360 0 360 358 357 354 351 348 345 343 343 342 342 342 341 341 341 340 340 341 341 341
333 337 339 341 341 341 339 337 336 335 334 333 332 331 329 328 328 328 328 328 329 329 330 331 331 331 330 330 329 328 327 326 326 328 330 334 337 339 340 341 341 341 339 339 344 351 357 358 359 359 359 359 357 355 351 349 347 346 345 344 343 341 340 338 337 335 335 334 334
333 337 339 340 340 340 338 336 335 334 334 334 332 331 330 329 329 329 329 330 330 330 331 332 333 333 332 330 329 328 327 325 326 327 329 332 336 337 338 337 338 340 342 343 345 350 355 356 356 357 358 359 359 358 356 354 352 350 349 347 345 343 341 339 336 333 331 329 328
333 337 339 340 339 338 336 335 335 334 334 333 332 332 331 330 329 329 329 330 330 331 332 333 335 335 334 332 331 329 327 326 326 326 328 331 334 336 336 334 334 339 344 346 346 349 353 355 355 356 357 358 358 359 359 359 357 356 353 351 350 348 345 343 339 336 332 328 326
333 337 339 338 338 337 336 335 335 335 334 333 332 332 331 330 329 328 328 329 330 331 332 334 336 336 336 335 333 332 330 328 327 327 328 331 333 335 335 333 333 337 344 348 346 346 349 353 354 355 356 356 357 358 0 2 2 0 357 355 353 352 351 349 346 343 339 335 332
333 336 337 337 336 336 336 336 335 335 334 333 332 331 330 329 328 327 327 328 329 330 332 334 335 336 337 338 337 335 333 331 329 328 329 330 332 333 333 333 332 335 341 346 344 341 343 348 352 355 356 355 356 358 1 3 4 3 0 358 356 355 355 355 354 352 350 347 343
330 334 335 335 335 336 336 336 335 335 334 332 331 330 329 328 327 326 326 327 328 329 330 332 334 337 339 340 340 339 337 334 332 329 328 328 329 331 332 332 332 334 337 341 341 339 338 339 345 351 355 355 355 357 0 3 3 2 1 359 358 358 358 359 359 359 358 357 354
328 331 333 334 335 335 336 336 335 334 333 332 331 330 329 328 327 327 326 326 326 327 328 330 332 336 339 342 342 341 339 336 332 329 328 327 327 329 330 331 332 333 333 334 338 338 334 328 333 344 352 355 356 357 360 1 1 360 359 358 359 359 1 2 3 3 3 2 360
325 329 331 333 334 335 335 335 335 334 334 333 332 331 330 329 328 327 326 325 325 326 327 328 331 334 338 342 343 341 338 335 332 329 327 325 326 327 329 331 331 331 329 327 332 336 331 319 321 332 344 353 356 358 359 359 357 357 357 358 358 359 1 3 5 6 6 4 1
321 326 329 331 333 334 335 336 336 335 335 335 334 333 331 330 328 327 326 326 326 326 327 327 329 333 336 339 339 338 336 334 331 329 326 325 325 326 328 329 330 329 326 323 328 332 329 318 314 321 334 345 353 357 358 357 355 355 356 357 358 358 360 2 5 7 7 5 2
318 323 326 329 331 333 335 336 336 337 337 336 335 334 333 331 330 328 328 327 328 328 327 328 329 332 333 333 332 332 332 332 331 329 328 326 325 325 326 327 328 327 326 323 325 328 327 321 314 314 322 334 345 353 357 357 354 354 355 356 356 356 357 359 2 5 6 5 2
315 320 324 327 330 332 334 335 336 337 337 337 337 336 335 333 332 331 330 330 330 329 328 328 329 330 329 326 325 326 328 330 329 328 327 326 325 325 325 326 326 327 326 325 323 323 325 325 320 315 314 322 333 345 353 356 355 353 352 352 352 353 354 356 358 0 2 3 1
312 317 321 324 328 331 333 334 336 338 339 339 338 338 337 336 335 334 333 332 331 330 329 329 329 327 324 320 320 322 325 326 326 325 324 323 324 325 325 325 325 325 326 326 323 321 322 326 326 321 315 313 321 332 344 352 353 350 346 344 346 348 351 352 353 355 358 359 359
309 314 318 322 326 329 331 333 336 338 339 340 339 339 338 338 337 337 335 334 333 333 332 330 328 325 320 317 318 320 321 321 321 320 319 320 322 325 325 325 324 324 325 325 324 321 320 322 326 325 319 312 313 321 333 343 347 343 337 334 337 341 345 347 349 350 352 353 354
307 310 314 318 322 326 329 332 335 337 339 339 339 339 339 339 339 338 338 338 337 336 334 332 329 325 322 320 319 318 317 317 317 317 317 319 322 324 325 324 323 322 323 324 322 321 319 319 322 324 322 315 312 317 326 335 338 334 326 322 325 331 338 342 344 345 345 346 348
304 307 311 315 318 323 326 329 332 335 338 339 339 339 339 339 340 340 340 339 338 337 335 332 330 327 325 323 320 318 316 315 315 316 317 319 321 323 324 323 322 321 322 321 320 318 318 318 320 323 323 321 317 318 324 329 330 326 317 310 312 319 327 335 339 340 340 340 341
301 304 307 311 315 319 322 325 329 333 336 338 338 338 339 339 340 341 340 339 338 337 336 335 333 331 328 325 322 320 318 316 316 317 318 319 321 323 323 322 321 321 321 320 319 317 315 316 317 320 323 323 321 320 322 324 324 319 310 302 301 305 314 324 332 336 337 335 335
298 301 304 308 312 315 318 322 326 330 334 336 337 337 338 338 339 339 339 338 339 339 340 339 337 334 331 329 326 324 322 321 321 321 321 322 322 323 323 322 321 321 322 321 318 315 313 313 314 317 320 321 320 318 317 316 317 315 308 299 294 294 300 309 320 329 334 334 332
295 298 302 305 309 311 315 319 323 327 330 333 334 335 335 336 337 338 338 339 340 341 341 341 339 337 335 332 330 328 327 326 326 325 326 326 326 325 325 323 323 324 324 322 319 315 313 311 312 314 317 318 317 314 312 310 311 311 309 303 294 288 289 296 307 319 328 333 333
292 295 299 302 306 309 312 316 320 324 327 330 332 333 333 335 335 336 337 339 340 341 341 342 341 339 338 335 333 331 330 330 330 330 330 330 329 328 327 327 327 328 327 325 322 318 316 313 313 314 315 315 313 311 309 307 307 308 309 307 299 290 285 287 295 307 319 329 333
289 292 296 300 303 306 310 313 317 321 325 328 330 331 332 333 334 335 337 338 339 341 342 343 343 343 341 339 337 336 334 333 333 334 334 334 332 330 330 331 333 334 333 331 327 324 320 317 316 315 314 313 311 309 307 306 304 305 307 309 305 295 286 282 286 296 309 321 330
287 291 295 298 301 304 307 310 314 318 323 327 329 330 331 332 333 334 335 336 339 341 344 346 347 346 345 343 341 339 338 336 336 335 335 335 333 332 332 335 339 341 341 339 335 330 326 322 320 317 315 312 310 308 306 305 304 303 305 307 306 300 291 283 282 286 296 310 322
287 290 294 297 299 301 303 307 311 317 322 325 327 328 329 329 330 332 334 336 339 341 344 347 348 348 347 345 343 342 341 339 337 335 333 333 332 333 335 338 343 347 348 346 342 337 332 328 323 319 316 313 310 308 307 306 304 304 304 306 306 304 297 288 282 281 286 296 309
288 290 293 295 297 300 302 305 311 317 321 324 325 326 326 326 327 330 333 336 338 341 342 345 347 348 348 346 344 343 342 339 337 333 329 328 330 333 336 339 345 350 352 351 347 343 338 332 327 321 316 313 310 309 307 306 305 304 304 305 307 306 302 294 286 281 281 286 295
288 290 292 294 297 299 302 306 312 316 319 321 322 323 323 324 326 329 333 335 337 338 339 342 345 346 347 345 343 342 341 339 337 332 327 325 328 332 336 339 344 348 352 352 349 345 341 336 331 325 319 314 312 310 309 307 305 303 303 303 305 305 303 297 290 283 280 282 286
287 289 292 294 297 300 303 307 311 314 316 318 318 319 321 323 326 329 331 332 333 334 335 338 341 344 345 344 342 340 338 337 335 331 328 325 327 330 335 338 341 344 346 347 346 343 340 337 334 330 324 319 315 313 311 308 305 303 301 302 303 303 301 297 292 286 282 281 282